Location: Congrier
(47.8099°N, 1.1170°W)
Time: 18:41:10
(UTC+00:00)

SL-16 R/B - Pass Details

Date: 28 January 2023
Orbit: 842 x 846 km, 71.0° (Epoch: 25 March)

Event Time Altitude Azimuth Distance (km) Brightness Sun altitude
Rises 18:13:13 0° 166° (SSE) 3,385 5.3 -12.6°
Reaches altitude 10° 18:16:06 10° 153° (SSE) 2,456 4.5 -13.1°
Maximum altitude 18:20:27 24° 102° (ESE) 1,701 3.3 -13.8°
Enters shadow 18:22:09 20° 76° (ENE) 1,841 3.3 -14.1°
